sat.trackr.live / text

‹ back to catalog

STARLINK-6317

NORAD 56526 · 2023-065Z

PAYLOAD ACTIVE UNKNOWN

§ Identity

Operator
Country
US
Launch date
2023-05-14
Launch site
AFETR
Launch vehicle
Mass (kg)
RCS (m²)

Purposes: comms

External: N2YO · Heavens-Above · Gunter

§ Orbital elements

Epoch: 2026-09-20T00:11:15.428544Z

Period
94.27 min
Inclination
43.0038°
Eccentricity
0.0001669
Mean motion
15.27585201 rev/d
Perigee alt
481.9 km
Apogee alt
484.2 km
Semi-major
6,861.2 km
B*
-2.5219e-5
RAAN
195.4577°
Arg perigee
261.4676°
Mean anomaly
98.5987°
Rev number
18,631

§ Raw data

STARLINK-63171 56526U 23065Z   26263.00781746 -.00000956  00000+0 -25219-4 0  99962 56526  43.0038 195.4577 0001669 261.4676  98.5987 15.27585201186317

JSON: /api/v1/satellites/56526 · /tle

For live sub-satellite position, see the globe view (requires WebGL).

§ Visibility from observer

Set your observer location to see the next 7 days of passes ≥ 10°. The values pass through the URL so the page stays shareable.

No JS? Fill the form by hand. The geolocation button needs JavaScript.